datetime,storage
1975-01-01,23694.0
1975-01-02,23648.0
1975-01-03,23531.0
1975-01-04,23472.0
1975-01-05,23526.0
1975-01-06,23580.0
1975-01-07,23627.0
1975-01-08,23722.0
1975-01-09,23733.0
1975-01-10,23705.0
1975-01-11,23580.0
1975-01-12,23410.0
1975-01-13,23240.0
1975-01-14,23190.0
1975-01-15,23357.0
1975-01-16,23667.0
1975-01-17,23951.0
1975-01-18,24108.0
1975-01-19,24331.0
1975-01-20,24554.0
1975-01-21,24648.0
1975-01-22,24472.0
1975-01-23,23924.0
1975-01-24,23750.0
1975-01-25,23839.0
1975-01-26,23927.0
1975-01-27,24017.0
1975-01-28,24041.0
1975-01-29,23907.0
1975-01-30,23783.0
1975-01-31,23761.0
1975-02-01,23814.0
1975-02-02,23857.0
1975-02-03,23790.0
1975-02-04,23744.0
1975-02-05,23772.0
1975-02-06,23795.0
1975-02-07,23744.0
1975-02-08,23751.0
1975-02-09,23826.0
1975-02-10,23941.0
1975-02-11,24007.0
1975-02-12,23918.0
1975-02-13,23867.0
1975-02-14,23856.0
1975-02-15,23880.0
1975-02-16,23892.0
1975-02-17,23869.0
1975-02-18,23844.0
1975-02-19,23800.0
1975-02-20,23766.0
1975-02-21,23761.0
1975-02-22,23778.0
1975-02-23,23825.0
1975-02-24,23857.0
1975-02-25,23851.0
1975-02-26,23895.0
1975-02-27,23884.0
1975-02-28,23761.0
1975-03-01,23738.0
1975-03-02,23826.0
1975-03-03,23949.0
1975-03-04,24024.0
1975-03-05,23918.0
1975-03-06,23783.0
1975-03-07,23750.0
1975-03-08,23700.0
1975-03-09,23689.0
1975-03-10,23663.0
1975-03-11,23671.0
1975-03-12,23705.0
1975-03-13,23699.0
1975-03-14,23671.0
1975-03-15,23622.0
1975-03-16,23580.0
1975-03-17,23561.0
1975-03-18,23559.0
1975-03-19,23566.0
1975-03-20,23576.0
1975-03-21,23594.0
1975-03-22,23654.0
1975-03-23,23709.0
1975-03-24,23677.0
1975-03-25,23655.0
1975-03-26,23542.0
1975-03-27,23542.0
1975-03-28,23604.0
1975-03-29,23655.0
1975-03-30,23612.0
1975-03-31,23509.0
1975-04-01,23424.0
1975-04-02,23464.0
1975-04-03,23571.0
1975-04-04,23571.0
1975-04-05,23518.0
1975-04-06,23576.0
1975-04-07,23786.0
1975-04-08,23896.0
1975-04-09,23716.0
1975-04-10,23525.0
1975-04-11,23458.0
1975-04-12,23530.0
1975-04-13,23628.0
1975-04-14,23698.0
1975-04-15,23817.0
1975-04-16,23958.0
1975-04-17,24410.0
1975-04-18,24990.0
1975-04-19,25321.0
1975-04-20,25809.0
1975-04-21,26227.0
1975-04-22,26553.0
1975-04-23,27084.0
1975-04-24,27632.0
1975-04-25,28205.0
1975-04-26,29041.0
1975-04-27,29704.0
1975-04-28,29808.0
1975-04-29,29973.0
1975-04-30,30204.0
1975-05-01,30618.0
1975-05-02,31066.0
1975-05-03,31461.0
1975-05-04,31839.0
1975-05-05,32117.0
1975-05-06,32393.0
1975-05-07,32484.0
1975-05-08,32504.0
1975-05-09,32384.0
1975-05-10,32309.0
1975-05-11,32308.0
1975-05-12,32297.0
1975-05-13,32294.0
1975-05-14,32173.0
1975-05-15,31873.0
1975-05-16,31678.0
1975-05-17,31368.0
1975-05-18,31061.0
1975-05-19,30798.0
1975-05-20,30962.0
1975-05-21,30938.0
1975-05-22,30813.0
1975-05-23,30759.0
1975-05-24,30683.0
1975-05-25,30671.0
1975-05-26,30682.0
1975-05-27,30673.0
1975-05-28,30810.0
1975-05-29,31480.0
1975-05-30,31694.0
1975-05-31,31544.0
1975-06-01,31582.0
1975-06-02,31723.0
1975-06-03,31862.0
1975-06-04,32082.0
1975-06-05,32315.0
1975-06-06,32412.0
1975-06-07,32409.0
1975-06-08,32279.0
1975-06-09,32413.0
1975-06-10,32382.0
1975-06-11,32699.0
1975-06-12,32534.0
1975-06-13,32539.0
1975-06-14,32504.0
1975-06-15,32503.0
1975-06-16,32600.0
1975-06-17,32893.0
1975-06-18,32780.0
1975-06-19,32340.0
1975-06-20,32195.0
1975-06-21,32379.0
1975-06-22,32252.0
1975-06-23,32122.0
1975-06-24,32076.0
1975-06-25,32103.0
1975-06-26,32360.0
1975-06-27,32827.0
1975-06-28,32998.0
1975-06-29,33013.0
1975-06-30,33207.0
1975-07-01,33304.0
1975-07-02,33175.0
1975-07-03,33219.0
1975-07-04,33233.0
1975-07-05,33062.0
1975-07-06,33067.0
1975-07-07,33067.0
1975-07-08,32859.0
1975-07-09,32986.0
1975-07-10,34072.0
1975-07-11,33717.0
1975-07-12,33103.0
1975-07-13,33287.0
1975-07-14,33726.0
1975-07-15,33961.0
1975-07-16,33602.0
1975-07-17,33154.0
1975-07-18,33348.0
1975-07-19,33834.0
1975-07-20,33485.0
1975-07-21,34064.0
1975-07-22,33544.0
1975-07-23,33381.0
1975-07-24,33827.0
1975-07-25,34087.0
1975-07-26,33894.0
1975-07-27,33622.0
1975-07-28,33497.0
1975-07-29,33474.0
1975-07-30,33167.0
1975-07-31,33137.0
1975-08-01,33226.0
1975-08-02,33379.0
1975-08-03,34121.0
1975-08-04,35041.0
1975-08-05,34449.0
1975-08-06,34595.0
1975-08-07,34741.0
1975-08-08,34727.0
1975-08-09,34899.0
1975-08-10,34919.0
1975-08-11,34732.0
1975-08-12,34520.0
1975-08-13,34200.0
1975-08-14,33821.0
1975-08-15,34023.0
1975-08-16,33415.0
1975-08-17,32770.0
1975-08-18,32487.0
1975-08-19,31978.0
1975-08-20,31713.0
1975-08-21,31617.0
1975-08-22,31666.0
1975-08-23,32123.0
1975-08-24,32257.0
1975-08-25,32339.0
1975-08-26,32493.0
1975-08-27,32611.0
1975-08-28,32758.0
1975-08-29,32856.0
1975-08-30,32856.0
1975-08-31,32540.0
1975-09-01,32151.0
1975-09-02,31835.0
1975-09-03,31505.0
1975-09-04,31139.0
1975-09-05,31036.0
1975-09-06,31112.0
1975-09-07,31199.0
1975-09-08,31263.0
1975-09-09,31168.0
1975-09-10,31193.0
1975-09-11,31166.0
1975-09-12,30913.0
1975-09-13,30827.0
1975-09-14,30998.0
1975-09-15,31233.0
1975-09-16,31378.0
1975-09-17,31424.0
1975-09-18,31509.0
1975-09-19,31866.0
1975-09-20,32293.0
1975-09-21,32534.0
1975-09-22,32657.0
1975-09-23,32730.0
1975-09-24,32618.0
1975-09-25,32487.0
1975-09-26,32347.0
1975-09-27,32211.0
1975-09-28,32142.0
1975-09-29,32177.0
1975-09-30,32186.0
1975-10-01,32100.0
1975-10-02,32010.0
1975-10-03,31858.0
1975-10-04,31681.0
1975-10-05,31473.0
1975-10-06,31334.0
1975-10-07,31286.0
1975-10-08,31253.0
1975-10-09,31196.0
1975-10-10,31154.0
1975-10-11,31211.0
1975-10-12,31219.0
1975-10-13,31278.0
1975-10-14,31363.0
1975-10-15,31377.0
1975-10-16,31298.0
1975-10-17,31219.0
1975-10-18,31164.0
1975-10-19,31104.0
1975-10-20,31044.0
1975-10-21,30977.0
1975-10-22,30931.0
1975-10-23,30905.0
1975-10-24,30907.0
1975-10-25,30911.0
1975-10-26,30890.0
1975-10-27,30898.0
1975-10-28,30933.0
1975-10-29,30918.0
1975-10-30,30846.0
1975-10-31,30745.0
1975-11-01,30769.0
1975-11-02,30963.0
1975-11-03,31157.0
1975-11-04,31180.0
1975-11-05,31073.0
1975-11-06,31195.0
1975-11-07,31490.0
1975-11-08,31900.0
1975-11-09,32277.0
1975-11-10,32654.0
1975-11-11,33006.0
1975-11-12,33448.0
1975-11-13,33824.0
1975-11-14,34236.0
1975-11-15,34769.0
1975-11-16,35330.0
1975-11-17,35891.0
1975-11-18,36396.0
1975-11-19,36919.0
1975-11-20,37441.0
1975-11-21,37804.0
1975-11-22,38138.0
1975-11-23,38484.0
1975-11-24,38830.0
1975-11-25,39197.0
1975-11-26,39593.0
1975-11-27,39966.0
1975-11-28,40272.0
1975-11-29,40608.0
1975-11-30,40949.0
1975-12-01,41290.0
1975-12-02,41604.0
1975-12-03,41866.0
1975-12-04,42247.0
1975-12-05,42624.0
1975-12-06,42993.0
1975-12-07,43419.0
1975-12-08,43845.0
1975-12-09,44297.0
1975-12-10,44758.0
1975-12-11,45149.0
1975-12-12,45599.0
1975-12-13,46045.0
1975-12-14,46451.0
1975-12-15,46857.0
1975-12-16,47211.0
1975-12-17,47489.0
1975-12-18,47832.0
1975-12-19,48145.0
1975-12-20,48520.0
1975-12-21,48920.0
1975-12-22,49320.0
1975-12-23,49685.0
1975-12-24,50041.0
1975-12-25,50402.0
1975-12-26,50765.0
1975-12-27,51128.0
1975-12-28,51464.0
1975-12-29,51464.0
1975-12-30,52093.0
1975-12-31,52470.0
1976-01-01,52836.0
1976-01-02,53142.0
1976-01-03,53378.0
1976-01-04,53594.0
1976-01-05,53810.0
1976-01-06,54157.0
1976-01-07,54539.0
1976-01-08,54912.0
1976-01-09,55172.0
1976-01-10,55488.0
1976-01-11,55910.0
1976-01-12,56332.0
1976-01-13,56727.0
1976-01-14,57105.0
1976-01-15,57447.0
1976-01-16,57759.0
1976-01-17,58118.0
1976-01-18,58469.0
1976-01-19,58820.0
1976-01-20,59199.0
1976-01-21,59839.0
1976-01-22,59839.0
1976-01-23,60180.0
1976-01-24,60462.0
1976-01-25,60751.0
1976-01-26,61040.0
1976-01-27,61314.0
1976-01-28,61584.0
1976-01-29,61892.0
1976-01-30,62247.0
1976-01-31,62651.0
1976-02-01,62953.0
1976-02-02,63255.0
1976-02-03,63549.0
1976-02-04,63324.0
1976-02-05,64112.0
1976-02-06,64354.0
1976-02-07,64628.0
1976-02-08,64949.0
1976-02-09,65270.0
1976-02-10,65701.0
1976-02-11,66159.0
1976-02-12,66742.0
1976-02-13,67279.0
1976-02-14,67683.0
1976-02-15,68085.0
1976-02-16,68487.0
1976-02-17,68920.0
1976-02-18,69157.0
1976-02-19,69388.0
1976-02-20,69562.0
1976-02-21,69826.0
1976-02-22,70098.0
1976-02-23,70370.0
1976-02-24,70567.0
1976-02-25,70849.0
1976-02-26,71108.0
1976-02-27,71348.0
1976-02-28,71638.0
1976-02-29,71899.0
1976-03-01,72051.0
1976-03-02,72143.0
1976-03-03,72247.0
1976-03-04,72353.0
1976-03-05,72474.0
1976-03-06,72468.0
1976-03-07,72507.0
1976-03-08,72546.0
1976-03-09,72603.0
1976-03-10,72685.0
1976-03-11,72696.0
1976-03-12,72715.0
1976-03-13,72647.0
1976-03-14,72546.0
1976-03-15,72445.0
1976-03-16,72390.0
1976-03-17,72390.0
1976-03-18,72339.0
1976-03-19,72372.0
1976-03-20,72310.0
1976-03-21,72114.0
1976-03-22,71932.0
1976-03-23,71818.0
1976-03-24,71756.0
1976-03-25,71674.0
1976-03-26,71727.0
1976-03-27,71784.0
1976-03-28,71882.0
1976-03-29,71995.0
1976-03-30,72191.0
1976-03-31,72499.0
1976-04-01,72720.0
1976-04-02,72812.0
1976-04-03,72713.0
1976-04-04,72490.0
1976-04-05,72252.0
1976-04-06,71860.0
1976-04-07,71395.0
1976-04-08,70833.0
1976-04-09,70418.0
1976-04-10,69969.0
1976-04-11,69091.0
1976-04-12,68175.0
1976-04-13,67351.0
1976-04-14,66477.0
1976-04-15,65477.0
1976-04-16,64587.0
1976-04-17,63668.0
1976-04-18,62831.0
1976-04-19,62115.0
1976-04-20,61386.0
1976-04-21,60715.0
1976-04-22,59862.0
1976-04-23,59220.0
1976-04-24,58561.0
1976-04-25,58042.0
1976-04-26,57338.0
1976-04-27,56875.0
1976-04-28,56147.0
1976-04-29,55493.0
1976-04-30,55040.0
1976-05-01,54772.0
1976-05-02,54612.0
1976-05-03,54416.0
1976-05-04,53936.0
1976-05-05,53563.0
1976-05-06,53120.0
1976-05-07,52703.0
1976-05-08,52425.0
1976-05-09,51956.0
1976-05-10,51418.0
1976-05-11,50840.0
1976-05-12,50279.0
1976-05-13,49803.0
1976-05-14,49269.0
1976-05-15,48636.0
1976-05-16,47809.0
1976-05-17,47303.0
1976-05-18,46813.0
1976-05-19,46262.0
1976-05-20,45669.0
1976-05-21,45204.0
1976-05-22,45124.0
1976-05-23,45140.0
1976-05-24,44916.0
1976-05-25,44616.0
1976-05-26,44506.0
1976-05-27,44443.0
1976-05-28,44428.0
1976-05-29,44318.0
1976-05-30,44255.0
1976-05-31,44113.0
1976-06-01,44113.0
1976-06-02,44019.0
1976-06-03,43909.0
1976-06-04,43736.0
1976-06-05,43547.0
1976-06-06,43830.0
1976-06-07,44648.0
1976-06-08,44600.0
1976-06-09,44239.0
1976-06-10,44302.0
1976-06-11,44412.0
1976-06-12,44302.0
1976-06-13,44097.0
1976-06-14,44066.0
1976-06-15,44223.0
1976-06-16,43972.0
1976-06-17,44097.0
1976-06-18,43799.0
1976-06-19,43814.0
1976-06-20,43736.0
1976-06-21,43594.0
1976-06-22,43500.0
1976-06-23,43484.0
1976-06-24,43484.0
1976-06-25,43453.0
1976-06-26,43095.0
1976-06-27,42786.0
1976-06-28,42617.0
1976-06-29,42416.0
1976-06-30,42354.0
1976-07-01,42385.0
1976-07-02,42154.0
1976-07-03,41891.0
1976-07-04,41268.0
1976-07-05,40768.0
1976-07-06,40374.0
1976-07-07,39733.0
1976-07-08,39257.0
1976-07-09,38722.0
1976-07-10,38445.0
1976-07-11,38445.0
1976-07-12,38227.0
1976-07-13,38052.0
1976-07-14,37818.0
1976-07-15,37614.0
1976-07-16,37265.0
1976-07-17,37093.0
1976-07-18,36821.0
1976-07-19,36578.0
1976-07-20,36278.0
1976-07-21,36121.0
1976-07-22,36350.0
1976-07-23,36135.0
1976-07-24,36207.0
1976-07-25,36721.0
1976-07-26,37250.0
1976-07-27,37862.0
1976-07-28,38285.0
1976-07-29,38708.0
1976-07-30,38975.0
1976-07-31,38679.0
1976-08-01,38577.0
1976-08-02,39331.0
1976-08-03,42508.0
1976-08-04,47385.0
1976-08-05,44805.0
1976-08-06,41253.0
1976-08-07,41510.0
1976-08-08,42030.0
1976-08-09,42308.0
1976-08-10,42607.0
1976-08-11,42725.0
1976-08-12,42617.0
1976-08-13,41814.0
1976-08-14,41162.0
1976-08-15,40435.0
1976-08-16,39970.0
1976-08-17,39287.0
1976-08-18,38752.0
1976-08-19,38198.0
1976-08-20,37425.0
1976-08-21,36721.0
1976-08-22,35906.0
1976-08-23,35428.0
1976-08-24,35246.0
1976-08-25,35204.0
1976-08-26,35134.0
1976-08-27,35036.0
1976-08-28,34896.0
1976-08-29,34826.0
1976-08-30,34854.0
1976-08-31,34868.0
1976-09-01,34896.0
1976-09-02,34840.0
1976-09-03,34699.0
1976-09-04,34559.0
1976-09-05,34489.0
1976-09-06,34392.0
1976-09-07,34378.0
1976-09-08,34433.0
1976-09-09,34433.0
1976-09-10,34351.0
1976-09-11,34337.0
1976-09-12,34255.0
1976-09-13,34172.0
1976-09-14,35022.0
1976-09-15,34896.0
1976-09-16,34186.0
1976-09-17,34186.0
1976-09-18,34186.0
1976-09-19,34104.0
1976-09-20,34076.0
1976-09-21,34186.0
1976-09-22,34145.0
1976-09-23,34159.0
1976-09-24,34172.0
1976-09-25,34351.0
1976-09-26,34910.0
1976-09-27,35428.0
1976-09-28,36178.0
1976-09-29,35779.0
1976-09-30,35992.0
1976-10-01,36350.0
1976-10-02,36779.0
1976-10-03,37193.0
1976-10-04,37571.0
1976-10-05,37979.0
1976-10-06,38358.0
1976-10-07,38591.0
1976-10-08,38945.0
1976-10-09,39346.0
1976-10-10,39673.0
1976-10-11,40030.0
1976-10-12,40359.0
1976-10-13,40723.0
1976-10-14,40995.0
1976-10-15,41283.0
1976-10-16,41525.0
1976-10-17,41922.0
1976-10-18,42262.0
1976-10-19,42663.0
1976-10-20,43002.0
1976-10-21,43343.0
1976-10-22,43689.0
1976-10-23,44003.0
1976-10-24,44333.0
1976-10-25,44663.0
1976-10-26,45060.0
1976-10-27,45493.0
1976-10-28,46102.0
1976-10-29,46666.0
1976-10-30,47156.0
1976-10-31,47695.0
1976-11-01,48353.0
1976-11-02,48903.0
1976-11-03,49407.0
1976-11-04,49719.0
1976-11-05,49973.0
1976-11-06,50134.0
1976-11-07,50247.0
1976-11-08,50360.0
1976-11-09,50585.0
1976-11-10,50976.0
1976-11-11,51265.0
1976-11-12,51747.0
1976-11-13,52130.0
1976-11-14,53138.0
1976-11-15,54150.0
1976-11-16,55112.0
1976-11-17,56056.0
1976-11-18,56967.0
1976-11-19,57727.0
1976-11-20,58629.0
1976-11-21,59453.0
1976-11-22,60278.0
1976-11-23,61118.0
1976-11-24,61866.0
1976-11-25,62597.0
1976-11-26,63337.0
1976-11-27,64214.0
1976-11-28,64923.0
1976-11-29,65358.0
1976-11-30,65774.0
1976-12-01,66447.0
1976-12-02,67291.0
1976-12-03,67934.0
1976-12-04,68539.0
1976-12-05,68948.0
1976-12-06,69356.0
1976-12-07,69846.0
1976-12-08,70255.0
1976-12-09,70709.0
1976-12-10,71207.0
1976-12-11,71687.0
1976-12-12,72080.0
1976-12-13,72433.0
1976-12-14,72897.0
1976-12-15,73256.0
1976-12-16,73531.0
1976-12-17,73911.0
1976-12-18,74419.0
1976-12-19,74630.0
1976-12-20,74932.0
1976-12-21,74717.0
1976-12-22,74440.0
1976-12-23,74080.0
1976-12-24,73869.0
1976-12-25,74207.0
1976-12-26,74609.0
1976-12-27,74953.0
1976-12-28,75276.0
1976-12-29,75620.0
1976-12-30,75921.0
1976-12-31,76287.0
1977-01-01,76523.0
1977-01-02,76738.0
1977-01-03,77110.0
1977-01-04,77483.0
1977-01-05,77767.0
1977-01-06,78052.0
1977-01-07,78293.0
1977-01-08,78601.0
1977-01-09,78709.0
1977-01-10,78797.0
1977-01-11,78928.0
1977-01-12,79129.0
1977-01-13,79419.0
1977-01-14,79642.0
1977-01-15,79887.0
1977-01-16,80133.0
1977-01-17,80445.0
1977-01-18,80803.0
1977-01-19,81201.0
1977-01-20,81591.0
1977-01-21,82001.0
1977-01-22,82320.0
1977-01-23,82661.0
1977-01-24,82979.0
1977-01-25,83457.0
1977-01-26,83735.0
1977-01-27,83990.0
1977-01-28,84269.0
1977-01-29,84477.0
1977-01-30,84616.0
1977-01-31,84967.0
1977-02-01,85196.0
1977-02-02,85498.0
1977-02-03,85753.0
1977-02-04,85989.0
1977-02-05,86201.0
1977-02-06,86461.0
1977-02-07,86674.0
1977-02-08,86957.0
1977-02-09,87194.0
1977-02-10,87454.0
1977-02-11,87690.0
1977-02-12,87903.0
1977-02-13,88092.0
1977-02-14,88356.0
1977-02-15,88620.0
1977-02-16,88885.0
1977-02-17,89150.0
1977-02-18,89390.0
1977-02-19,89655.0
1977-02-20,89871.0
1977-02-21,90112.0
1977-02-22,90425.0
1977-02-23,90741.0
1977-02-24,90814.0
1977-02-25,90985.0
1977-02-26,91205.0
1977-02-27,91377.0
1977-02-28,91499.0
1977-03-01,91744.0
1977-03-02,92013.0
1977-03-03,92306.0
1977-03-04,92526.0
1977-03-05,92771.0
1977-03-06,92918.0
1977-03-07,93041.0
1977-03-08,93065.0
1977-03-09,93115.0
1977-03-10,93090.0
1977-03-11,93016.0
1977-03-12,92991.0
1977-03-13,92795.0
1977-03-14,92722.0
1977-03-15,92575.0
1977-03-16,92575.0
1977-03-17,92526.0
1977-03-18,92453.0
1977-03-19,92404.0
1977-03-20,92331.0
1977-03-21,92184.0
1977-03-22,92184.0
1977-03-23,92110.0
1977-03-24,92086.0
1977-03-25,92013.0
1977-03-26,91866.0
1977-03-27,91817.0
1977-03-28,91768.0
1977-03-29,91597.0
1977-03-30,91450.0
1977-03-31,91328.0
1977-04-01,91328.0
1977-04-02,91377.0
1977-04-03,91450.0
1977-04-04,91352.0
1977-04-05,91254.0
1977-04-06,91132.0
1977-04-07,91034.0
1977-04-08,90839.0
1977-04-09,90716.0
1977-04-10,90521.0
1977-04-11,90353.0
1977-04-12,90184.0
1977-04-13,89871.0
1977-04-14,89533.0
1977-04-15,89198.0
1977-04-16,89246.0
1977-04-17,89150.0
1977-04-18,88933.0
1977-04-19,88813.0
1977-04-20,88428.0
1977-04-21,87646.0
1977-04-22,87430.0
1977-04-23,87241.0
1977-04-24,86910.0
1977-04-25,86461.0
1977-04-26,85941.0
1977-04-27,85730.0
1977-04-28,85498.0
1977-04-29,85127.0
1977-04-30,84848.0
1977-05-01,84941.0
1977-05-02,85034.0
1977-05-03,85127.0
1977-05-04,85289.0
1977-05-05,85173.0
1977-05-06,84895.0
1977-05-07,84640.0
1977-05-08,84269.0
1977-05-09,83967.0
1977-05-10,83689.0
1977-05-11,83252.0
1977-05-12,82388.0
1977-05-13,81478.0
1977-05-14,80736.0
1977-05-15,80222.0
1977-05-16,79575.0
1977-05-17,78359.0
1977-05-18,77067.0
1977-05-19,75921.0
1977-05-20,74717.0
1977-05-21,73552.0
1977-05-22,72495.0
1977-05-23,71436.0
1977-05-24,70275.0
1977-05-25,69152.0
1977-05-26,68560.0
1977-05-27,68376.0
1977-05-28,68195.0
1977-05-29,68055.0
1977-05-30,68014.0
1977-05-31,67954.0
1977-06-01,67834.0
1977-06-02,67793.0
1977-06-03,67793.0
1977-06-04,67753.0
1977-06-05,67592.0
1977-06-06,67412.0
1977-06-07,67211.0
1977-06-08,67130.0
1977-06-09,66889.0
1977-06-10,66508.0
1977-06-11,66169.0
1977-06-12,65516.0
1977-06-13,64785.0
1977-06-14,64488.0
1977-06-15,64155.0
1977-06-16,63610.0
1977-06-17,63181.0
1977-06-18,62811.0
1977-06-19,62211.0
1977-06-20,61885.0
1977-06-21,61731.0
1977-06-22,61559.0
1977-06-23,61348.0
1977-06-24,61213.0
1977-06-25,61118.0
1977-06-26,60830.0
1977-06-27,59900.0
1977-06-28,59201.0
1977-06-29,58413.0
1977-06-30,57597.0
1977-07-01,56819.0
1977-07-02,56038.0
1977-07-03,55149.0
1977-07-04,54238.0
1977-07-05,53439.0
1977-07-06,52981.0
1977-07-07,52669.0
1977-07-08,52477.0
1977-07-09,52234.0
1977-07-10,51921.0
1977-07-11,51678.0
1977-07-12,51333.0
1977-07-13,50993.0
1977-07-14,50670.0
1977-07-15,50262.0
1977-07-16,49888.0
1977-07-17,49519.0
1977-07-18,49253.0
1977-07-19,48870.0
1977-07-20,48503.0
1977-07-21,48969.0
1977-07-22,48038.0
1977-07-23,45973.0
1977-07-24,45028.0
1977-07-25,44097.0
1977-07-26,43187.0
1977-07-27,42493.0
1977-07-28,41953.0
1977-07-29,41374.0
1977-07-30,41253.0
1977-07-31,41071.0
1977-08-01,40919.0
1977-08-02,40677.0
1977-08-03,40359.0
1977-08-04,40134.0
1977-08-05,39970.0
1977-08-06,39777.0
1977-08-07,39703.0
1977-08-08,39629.0
1977-08-09,39465.0
1977-08-10,39302.0
1977-08-11,39227.0
1977-08-12,39302.0
1977-08-13,39435.0
1977-08-14,39346.0
1977-08-15,39183.0
1977-08-16,38915.0
1977-08-17,38826.0
1977-08-18,38752.0
1977-08-19,38782.0
1977-08-20,38782.0
1977-08-21,38562.0
1977-08-22,38198.0
1977-08-23,37789.0
1977-08-24,37381.0
1977-08-25,36936.0
1977-08-26,36407.0
1977-08-27,35935.0
1977-08-28,35653.0
1977-08-29,35611.0
1977-08-30,35541.0
1977-08-31,35400.0
1977-09-01,35274.0
1977-09-02,35204.0
1977-09-03,35120.0
1977-09-04,34994.0
1977-09-05,34896.0
1977-09-06,34713.0
1977-09-07,34699.0
1977-09-08,34601.0
1977-09-09,34447.0
1977-09-10,34420.0
1977-09-11,34351.0
1977-09-12,34447.0
1977-09-13,34489.0
1977-09-14,34559.0
1977-09-15,34559.0
1977-09-16,34531.0
1977-09-17,34531.0
1977-09-18,34545.0
1977-09-19,34531.0
1977-09-20,34503.0
1977-09-21,34475.0
1977-09-22,34378.0
1977-09-23,34310.0
1977-09-24,34296.0
1977-09-25,34365.0
1977-09-26,34365.0
1977-09-27,34337.0
1977-09-28,34337.0
1977-09-29,34337.0
1977-09-30,34296.0
1977-10-01,34609.0
1977-10-02,34596.0
1977-10-03,34609.0
1977-10-04,34692.0
1977-10-05,34719.0
1977-10-06,34678.0
1977-10-07,34678.0
1977-10-08,34678.0
1977-10-09,34623.0
1977-10-10,34623.0
1977-10-11,34568.0
1977-10-12,34527.0
1977-10-13,34541.0
1977-10-14,34541.0
1977-10-15,34527.0
1977-10-16,34500.0
1977-10-17,34472.0
1977-10-18,34431.0
1977-10-19,34376.0
1977-10-20,34321.0
1977-10-21,34211.0
1977-10-22,34047.0
1977-10-23,33964.0
1977-10-24,33951.0
1977-10-25,33951.0
1977-10-26,33923.0
1977-10-27,33896.0
1977-10-28,33827.0
1977-10-29,33814.0
1977-10-30,33814.0
1977-10-31,33814.0
1977-11-01,33827.0
1977-11-02,33827.0
1977-11-03,33841.0
1977-11-04,33868.0
1977-11-05,33896.0
1977-11-06,33937.0
1977-11-07,33978.0
1977-11-08,34019.0
1977-11-09,34074.0
1977-11-10,34061.0
1977-11-11,33992.0
1977-11-12,33896.0
1977-11-13,33841.0
1977-11-14,33855.0
1977-11-15,33923.0
1977-11-16,33910.0
1977-11-17,33855.0
1977-11-18,33745.0
1977-11-19,33704.0
1977-11-20,33704.0
1977-11-21,33704.0
1977-11-22,33704.0
1977-11-23,33759.0
1977-11-24,33772.0
1977-11-25,33800.0
1977-11-26,33814.0
1977-11-27,33759.0
1977-11-28,33731.0
1977-11-29,33718.0
1977-11-30,33704.0
1977-12-01,33676.0
1977-12-02,33469.0
1977-12-03,33649.0
1977-12-04,33731.0
1977-12-05,33855.0
1977-12-06,33923.0
1977-12-07,33910.0
1977-12-08,33718.0
1977-12-09,33622.0
1977-12-10,33635.0
1977-12-11,33608.0
1977-12-12,33622.0
1977-12-13,33580.0
1977-12-14,33498.0
1977-12-15,32946.0
1977-12-16,32463.0
1977-12-17,32409.0
1977-12-18,32450.0
1977-12-19,32490.0
1977-12-20,32517.0
1977-12-21,32543.0
1977-12-22,32450.0
1977-12-23,32517.0
1977-12-24,32597.0
1977-12-25,32517.0
1977-12-26,32490.0
1977-12-27,32450.0
1977-12-28,32396.0
1977-12-29,32409.0
1977-12-30,32409.0
1977-12-31,32557.0
1978-01-01,32637.0
1978-01-02,32678.0
1978-01-03,32584.0
1978-01-04,32490.0
1978-01-05,32517.0
1978-01-06,32624.0
1978-01-07,32611.0
1978-01-08,32557.0
1978-01-09,32503.0
1978-01-10,32409.0
1978-01-11,32329.0
1978-01-12,32396.0
1978-01-13,32436.0
1978-01-14,32436.0
1978-01-15,32423.0
1978-01-16,32450.0
1978-01-17,32409.0
1978-01-18,32356.0
1978-01-19,32275.0
1978-01-20,32356.0
1978-01-21,32436.0
1978-01-22,32503.0
1978-01-23,32517.0
1978-01-24,32476.0
1978-01-25,32436.0
1978-01-26,32289.0
1978-01-27,32262.0
1978-01-28,32369.0
1978-01-29,32450.0
1978-01-30,32543.0
1978-01-31,32597.0
1978-02-01,32503.0
1978-02-02,32356.0
1978-02-03,32275.0
1978-02-04,32275.0
1978-02-05,32275.0
1978-02-06,32275.0
1978-02-07,32289.0
1978-02-08,32302.0
1978-02-09,32369.0
1978-02-10,32396.0
1978-02-11,32356.0
1978-02-12,32369.0
1978-02-13,32369.0
1978-02-14,32409.0
1978-02-15,32369.0
1978-02-16,32329.0
1978-02-17,32316.0
1978-02-18,32302.0
1978-02-19,32302.0
1978-02-20,32302.0
1978-02-21,32235.0
1978-02-22,32235.0
1978-02-23,32302.0
1978-02-24,32450.0
1978-02-25,32450.0
1978-02-26,32450.0
1978-02-27,32450.0
1978-02-28,32450.0
1978-03-01,32423.0
1978-03-02,32329.0
1978-03-03,32329.0
1978-03-04,32342.0
1978-03-05,32356.0
1978-03-06,32396.0
1978-03-07,32396.0
1978-03-08,32450.0
1978-03-09,32409.0
1978-03-10,32329.0
1978-03-11,32329.0
1978-03-12,32396.0
1978-03-13,32463.0
1978-03-14,32476.0
1978-03-15,32356.0
1978-03-16,32302.0
1978-03-17,32262.0
1978-03-18,32235.0
1978-03-19,32195.0
1978-03-20,32155.0
1978-03-21,32114.0
1978-03-22,32061.0
1978-03-23,32034.0
1978-03-24,32008.0
1978-03-25,31982.0
1978-03-26,31982.0
1978-03-27,31982.0
1978-03-28,31956.0
1978-03-29,31943.0
1978-03-30,31916.0
1978-03-31,31916.0
1978-04-01,31943.0
1978-04-02,31943.0
1978-04-03,31982.0
1978-04-04,32088.0
1978-04-05,32208.0
1978-04-06,32235.0
1978-04-07,32208.0
1978-04-08,32181.0
1978-04-09,32181.0
1978-04-10,32155.0
1978-04-11,32248.0
1978-04-12,32409.0
1978-04-13,32409.0
1978-04-14,32409.0
1978-04-15,32383.0
1978-04-16,32369.0
1978-04-17,32409.0
1978-04-18,32503.0
1978-04-19,32463.0
1978-04-20,32450.0
1978-04-21,32423.0
1978-04-22,32423.0
1978-04-23,32476.0
1978-04-24,32678.0
1978-04-25,32906.0
1978-04-26,33134.0
1978-04-27,33375.0
1978-04-28,33635.0
1978-04-29,34129.0
1978-04-30,34033.0
1978-05-01,34074.0
1978-05-02,34266.0
1978-05-03,34184.0
1978-05-04,34047.0
1978-05-05,34047.0
1978-05-06,34184.0
1978-05-07,34403.0
1978-05-08,34390.0
1978-05-09,34335.0
1978-05-10,34349.0
1978-05-11,34403.0
1978-05-12,34403.0
1978-05-13,34335.0
1978-05-14,34211.0
1978-05-15,33992.0
1978-05-16,33814.0
1978-05-17,33580.0
1978-05-18,33553.0
1978-05-19,33402.0
1978-05-20,33294.0
1978-05-21,33294.0
1978-05-22,33348.0
1978-05-23,33429.0
1978-05-24,33484.0
1978-05-25,33498.0
1978-05-26,33510.0
1978-05-27,33498.0
1978-05-28,33362.0
1978-05-29,33214.0
1978-05-30,33107.0
1978-05-31,33053.0
1978-06-01,33080.0
1978-06-02,33040.0
1978-06-03,33066.0
1978-06-04,33093.0
1978-06-05,33663.0
1978-06-06,33526.0
1978-06-07,33294.0
1978-06-08,33026.0
1978-06-09,32879.0
1978-06-10,32865.0
1978-06-11,33335.0
1978-06-12,34143.0
1978-06-13,33241.0
1978-06-14,33013.0
1978-06-15,32865.0